Wind_Speed
12 12 13 12 11 10 10 10 10 10 11 11 11 12 13 13 14 15 16 16 17 18 18 18 19 19 19 19 20 20 20 20 20 20 20 20 20 20 20 19 19 19 18 18 18 19 19 20 20 20 21 21 20 20 19 19 18 18 19 19 20 20 20 19 18 16 15 15 16 16 16 16 16 16 17 17 18 18 17 17 17 17 17 17 17 17 18 19
10 11 11 10 10 9 9 8 8 8 9 9 9 10 10 10 11 12 13 14 15 16 16 17 17 17 17 17 18 18 18 18 18 19 18 18 18 18 18 18 18 18 18 18 19 19 19 19 20 20 20 20 20 20 20 19 19 19 19 19 19 20 20 19 17 16 16 16 17 17 17 17 18 18 19 20 20 19 19 18 18 17 17 17 18 18 19 20
9 9 9 9 9 8 7 7 7 8 8 8 8 8 8 8 9 10 11 12 13 14 15 15 15 15 15 16 16 16 16 16 17 17 17 17 17 17 18 18 18 19 19 19 19 19 19 19 19 20 20 20 20 20 20 19 20 20 19 19 20 20 20 19 18 18 18 18 18 18 18 19 20 21 22 22 21 21 21 19 19 18 18 18 18 18 19 21
9 9 9 9 9 8 7 7 7 7 7 7 7 6 6 6 7 8 9 11 12 12 13 13 13 13 14 14 15 15 15 16 16 17 17 17 17 17 18 18 18 19 19 19 19 19 19 20 20 20 20 19 19 20 20 20 20 20 20 21 21 21 21 20 20 20 20 20 20 20 21 22 22 23 24 24 23 23 22 20 20 19 19 20 20 20 20 22
9 9 9 9 9 8 8 8 8 7 7 6 5 5 5 6 7 7 8 9 10 11 11 12 12 12 13 14 14 15 16 16 16 17 17 17 17 17 18 18 18 18 19 19 20 20 20 20 20 20 20 20 20 20 20 20 21 21 22 23 23 23 23 22 23 23 23 23 23 23 23 24 25 25 25 24 25 24 22 22 22 22 22 22 22 22 22 23
9 10 10 9 9 9 9 8 8 8 6 6 5 5 5 6 7 7 8 9 9 10 10 11 11 12 13 13 14 15 15 15 15 16 16 16 17 17 18 18 19 19 19 19 19 20 20 20 21 21 21 21 21 21 21 21 22 23 24 24 25 25 25 25 26 26 26 26 26 25 26 26 26 26 25 26 26 25 24 23 24 24 23 23 23 24 25 25
10 10 11 10 10 10 10 9 9 8 7 6 6 6 6 7 7 8 9 9 9 10 10 11 11 12 12 13 13 14 14 14 14 15 15 16 17 17 18 19 19 19 19 20 20 20 21 21 22 22 22 22 22 23 23 23 24 24 25 26 26 26 27 27 28 28 28 28 28 28 28 27 26 26 27 28 28 27 26 25 25 25 25 25 25 26 26 26
10 11 11 11 11 11 10 10 9 9 8 8 7 7 7 7 8 9 10 10 11 11 11 11 11 11 12 12 13 14 14 14 14 15 15 16 17 18 19 19 19 20 20 20 21 21 22 22 22 23 23 23 23 24 25 25 25 26 27 27 27 27 28 29 29 29 29 30 30 30 29 28 27 28 28 29 29 28 28 27 27 27 26 26 27 27 27 27
11 11 12 12 12 12 11 11 10 9 9 9 8 8 8 9 9 10 11 12 12 12 12 12 12 12 12 12 13 14 14 15 15 16 17 18 19 19 20 20 20 20 20 21 22 22 23 23 23 24 24 24 25 25 26 26 27 27 28 28 28 28 29 29 30 30 30 31 31 31 30 29 29 29 30 30 30 30 29 29 29 28 28 28 28 28 28 29
12 12 13 13 13 13 13 12 11 11 10 10 10 10 10 10 10 11 11 12 12 13 13 12 13 13 13 14 15 16 16 17 17 18 18 19 20 21 21 21 21 21 21 22 23 23 24 24 24 25 25 25 26 26 26 27 28 28 28 28 29 29 29 30 30 31 31 32 32 32 31 30 30 30 31 31 31 31 30 31 31 30 30 30 30 30 29 30
12 13 14 14 14 14 14 14 13 13 12 12 11 11 11 11 11 12 12 12 13 13 12 12 13 13 14 15 17 17 17 18 19 19 20 21 21 22 22 22 22 22 22 22 23 24 25 25 25 26 26 26 26 27 27 28 28 28 28 28 28 28 29 30 31 31 31 32 32 32 32 31 31 31 32 32 32 32 32 32 32 32 32 31 31 30 30 30
12 13 14 15 15 15 15 15 15 15 14 14 13 13 12 12 12 12 13 13 13 13 13 13 13 14 15 16 17 17 18 19 19 19 20 21 21 21 21 21 21 21 22 22 23 24 24 25 25 25 26 26 27 27 27 28 28 28 28 28 27 28 30 30 30 31 32 33 33 32 32 32 32 32 32 32 33 34 34 34 33 33 33 32 32 30 30 30
11 12 13 15 15 16 16 16 16 15 15 15 15 14 14 14 14 14 14 14 14 14 14 15 15 15 16 16 17 17 18 18 19 19 20 20 21 21 21 20 20 21 21 21 22 23 23 24 24 24 25 26 26 27 27 28 28 28 28 28 28 29 31 31 30 31 32 33 33 33 33 34 34 33 33 34 34 35 35 35 34 34 34 33 32 31 30 29
9 11 12 14 15 16 16 16 16 16 16 16 16 16 15 15 16 16 16 16 16 16 16 17 17 17 17 18 17 18 19 19 20 21 21 22 22 22 22 21 21 22 22 22 23 23 24 24 24 25 25 26 27 28 28 29 29 30 30 30 30 30 31 31 31 32 33 34 33 33 34 35 35 34 34 35 36 36 36 35 34 34 33 32 31 30 28 27
9 9 10 12 13 14 15 16 16 16 16 16 16 16 17 17 17 17 17 17 17 18 18 19 18 18 19 19 19 19 20 21 21 22 23 23 23 23 23 23 23 23 24 24 24 25 25 25 26 26 27 28 28 29 29 30 30 31 31 31 31 31 32 32 31 32 33 33 33 33 34 35 36 35 35 36 37 37 35 34 33 32 31 30 29 28 27 27
10 10 10 10 11 12 13 14 15 16 16 17 17 17 17 18 18 18 18 18 18 19 19 19 19 19 20 20 20 21 21 22 22 23 23 24 24 24 24 24 24 24 24 25 25 25 25 25 26 27 27 28 29 29 29 30 31 31 31 32 32 32 32 32 32 32 32 33 33 33 34 34 36 35 35 37 38 36 34 32 31 30 30 30 29 29 28 28
10 10 10 11 11 11 11 12 14 15 16 16 17 17 17 18 18 18 18 18 18 19 19 19 19 20 21 21 21 21 21 22 22 23 24 24 24 23 24 24 24 24 24 24 24 24 24 25 26 27 27 28 29 29 30 31 31 32 32 32 32 32 33 34 33 32 32 33 33 33 33 33 34 33 33 37 38 35 32 30 31 31 31 31 30 29 28 27
10 10 11 11 11 12 12 12 13 13 14 15 16 16 17 17 17 17 17 18 18 19 19 19 20 20 20 21 21 21 21 22 22 22 23 23 22 23 23 24 24 24 24 24 24 24 25 26 27 28 29 30 30 30 31 32 32 32 32 32 33 33 33 34 34 33 32 32 32 32 31 31 32 32 32 36 38 35 31 30 31 31 32 32 30 28 27 26
11 11 11 12 12 12 13 13 13 14 14 14 15 15 15 16 17 17 18 18 18 19 19 19 20 20 21 21 22 21 21 22 22 22 23 22 23 23 24 24 25 26 26 25 26 26 27 28 29 30 31 31 32 31 32 32 32 32 32 33 33 33 34 34 33 31 31 30 30 30 29 28 30 31 32 36 38 34 31 31 31 31 32 32 30 28 27 26
11 12 12 12 13 13 13 14 14 14 15 15 15 15 15 16 16 17 17 18 18 18 19 19 19 20 21 22 22 22 22 22 23 23 24 24 24 25 25 26 27 27 27 27 27 28 29 30 31 31 32 32 32 32 32 33 32 32 32 33 33 33 33 32 31 30 29 29 29 30 29 27 28 30 32 36 37 34 31 31 31 31 32 31 30 29 28 28
12 12 12 12 13 13 14 15 15 15 16 16 16 16 16 17 17 18 18 18 18 19 20 20 20 22 23 23 24 24 24 24 25 25 26 26 26 27 27 28 29 29 29 28 28 29 29 30 31 31 32 32 32 32 32 32 31 31 31 31 30 30 31 30 29 29 29 29 30 30 29 26 28 31 33 35 35 33 32 31 31 31 31 31 30 30 30 30
13 13 13 13 13 13 13 14 15 15 16 17 17 17 18 18 18 19 19 20 20 20 20 21 22 23 24 24 25 25 26 27 26 27 27 27 27 28 28 29 30 30 29 29 29 29 29 30 32 31 31 31 31 31 30 28 27 28 29 28 28 28 29 29 29 29 30 30 30 31 28 25 28 32 33 33 32 31 31 31 31 31 31 31 31 31 32 32
14 14 14 14 14 13 13 13 13 14 15 16 16 17 18 19 19 20 20 21 21 21 21 22 23 24 25 26 26 26 28 27 27 27 28 28 29 29 29 30 31 30 30 30 30 29 28 30 30 29 30 29 28 27 26 25 25 26 27 26 26 27 28 29 29 30 30 30 30 31 29 26 29 32 32 32 30 29 30 31 31 31 31 31 31 32 33 32
14 14 14 14 14 14 14 14 14 13 13 14 15 16 16 17 18 19 19 20 21 20 22 23 23 25 26 27 27 27 28 28 27 28 28 30 30 30 30 31 31 30 31 30 29 27 26 28 27 27 27 26 24 24 23 23 24 25 26 26 26 27 28 29 30 30 30 30 30 31 29 27 29 31 31 31 29 28 31 31 31 31 31 31 32 32 33 32
14 14 14 14 15 15 14 15 14 14 13 13 13 14 14 14 15 16 16 16 16 17 18 20 20 22 24 24 25 25 25 25 24 25 26 27 28 28 28 28 27 27 27 25 24 23 24 25 24 24 24 23 22 22 22 23 23 24 25 26 27 28 29 29 30 30 30 30 30 31 30 27 28 30 30 30 30 30 31 31 31 31 31 31 31 32 31 31
15 14 14 14 14 14 14 15 15 15 15 14 14 14 14 14 14 14 14 13 13 13 14 15 16 18 19 19 20 20 20 19 19 20 21 22 22 22 22 22 22 23 21 19 19 20 21 22 22 22 22 21 21 22 23 23 24 25 26 26 28 29 30 30 31 31 30 30 30 32 32 28 27 30 30 29 30 31 31 31 31 31 31 30 30 30 30 30
15 15 15 14 14 14 15 15 15 15 15 15 15 15 14 14 14 15 14 13 13 13 13 13 14 15 16 16 17 17 16 15 16 17 17 18 18 18 18 18 19 19 17 17 17 19 21 21 21 21 19 19 22 23 24 25 26 27 27 27 28 29 30 30 31 31 30 30 30 31 34 32 27 28 31 30 30 32 32 32 31 31 30 30 29 29 29 29
16 16 16 16 15 15 15 16 16 16 16 15 15 15 15 16 16 16 16 15 14 14 14 14 14 15 16 17 17 17 17 16 15 15 16 17 16 16 16 16 17 17 16 16 17 18 21 21 21 20 19 21 25 25 25 26 27 27 27 27 28 29 30 30 30 30 30 29 28 31 36 34 27 25 30 32 31 32 33 32 31 31 31 31 30 30 29 29
18 17 17 17 17 16 16 17 17 17 17 17 16 16 16 17 16 17 17 16 17 17 16 16 16 17 17 17 18 18 18 17 16 16 16 17 17 16 16 17 18 17 16 15 16 19 20 20 21 20 21 24 26 25 25 27 27 27 26 27 28 29 29 29 29 29 31 29 27 31 35 35 30 25 27 32 34 34 33 31 31 32 31 30 30 29 29 30
18 18 18 18 18 18 18 18 18 18 18 18 17 17 17 17 17 17 17 17 19 20 19 18 18 18 18 18 18 18 18 18 18 18 18 18 18 18 18 18 19 18 17 16 17 20 21 21 21 22 23 26 26 25 25 27 27 26 26 26 28 29 28 29 29 29 32 30 28 32 34 35 33 26 25 31 34 34 32 30 31 32 31 30 29 29 30 32
18 18 18 18 19 19 19 19 19 19 19 19 18 18 18 18 17 17 17 19 21 21 21 19 18 18 18 17 17 18 19 19 20 20 20 20 20 19 19 20 21 20 19 18 19 21 22 22 22 23 24 25 25 25 26 26 26 26 26 26 27 29 29 29 29 30 32 31 30 32 34 35 34 28 27 32 34 33 33 31 31 32 31 30 30 31 33 34
16 17 17 17 18 19 19 19 19 19 19 19 19 19 19 18 19 19 18 20 22 22 21 19 18 19 19 17 17 18 19 19 21 22 23 23 22 21 22 22 23 23 22 22 23 24 24 23 23 23 24 25 26 25 25 25 25 26 26 26 27 28 29 29 29 31 32 31 31 32 33 34 32 29 29 32 34 34 33 32 32 32 31 31 32 33 33 34
14 14 14 15 15 16 17 17 18 18 18 19 19 19 19 19 20 21 20 20 21 21 21 20 19 19 19 18 18 20 19 20 21 23 24 25 25 25 25 26 26 27 27 27 28 28 28 26 24 24 25 27 28 26 25 25 26 27 26 27 28 28 29 31 32 32 32 31 32 33 34 34 31 29 31 32 34 34 33 33 33 32 31 32 32 33 33 33
13 12 13 13 13 14 14 15 15 16 16 17 17 17 18 18 19 21 22 21 21 21 21 20 20 20 20 20 21 22 23 23 25 25 26 28 27 27 27 28 28 30 30 31 31 31 32 29 26 27 28 29 30 29 29 30 30 30 29 29 29 28 30 33 33 32 32 32 33 34 35 34 31 30 31 32 33 33 33 33 33 33 32 32 33 33 32 31
13 13 13 13 13 13 14 14 14 14 14 15 15 15 16 17 18 20 21 21 22 22 22 23 22 22 22 23 24 25 27 27 28 29 30 31 31 30 29 28 28 29 30 33 33 33 35 34 30 29 32 32 31 30 32 33 33 33 33 32 30 29 32 35 34 33 33 34 34 34 34 33 30 30 30 32 34 34 33 33 34 34 34 33 33 32 32 31
17 16 16 16 16 15 15 16 15 15 15 14 15 15 15 17 18 18 19 20 21 21 21 22 24 25 25 25 25 27 29 30 31 32 33 34 34 34 32 31 30 31 33 34 35 36 39 40 35 33 34 33 31 31 32 34 34 35 36 33 31 32 33 34 34 34 35 36 36 34 33 32 31 30 30 32 35 36 35 35 35 35 34 34 33 32 32 32
20 20 20 20 20 19 19 19 18 18 17 17 16 16 16 17 18 18 19 19 20 21 21 22 24 25 26 26 26 28 29 31 32 33 34 36 37 36 36 36 35 35 35 36 38 40 41 43 41 38 37 35 34 34 34 35 36 37 35 32 31 33 34 34 35 35 35 36 37 35 33 33 32 31 31 34 37 37 37 37 36 35 34 34 33 33 33 32
23 22 22 23 23 23 22 22 22 21 20 20 19 19 19 19 19 20 21 22 23 23 24 24 25 26 27 28 28 29 31 32 34 35 36 36 37 37 38 39 39 39 38 39 41 43 43 45 45 41 39 38 37 37 37 37 38 37 35 33 33 34 35 35 36 36 36 37 38 37 36 35 33 32 32 34 36 38 39 38 36 35 34 34 34 33 33 32
24 24 24 24 24 25 24 24 24 24 24 23 23 22 22 22 23 24 24 25 25 26 27 28 28 28 29 31 32 32 33 34 36 37 38 39 39 40 42 43 43 43 43 43 43 44 44 47 48 46 42 42 42 42 42 41 39 37 36 35 35 36 37 38 39 38 38 39 39 39 38 36 34 33 32 32 34 37 39 39 37 36 35 35 35 34 33 32
25 25 25 25 24 25 25 25 25 25 26 26 25 25 26 25 26 26 27 27 28 29 30 31 31 32 33 34 35 36 37 37 39 40 41 42 43 44 45 46 46 47 47 46 46 46 47 49 51 51 48 48 48 48 46 43 41 40 38 38 38 37 38 40 41 40 40 41 40 41 41 37 33 33 31 31 33 35 38 39 39 38 36 36 36 35 34 32
25 26 26 25 25 25 25 25 25 25 26 26 26 26 27 27 27 28 28 29 29 31 32 34 35 36 36 37 38 40 40 41 41 42 44 45 46 47 49 49 50 50 50 49 48 48 49 51 54 55 55 55 54 52 49 47 46 45 43 42 40 38 39 42 44 43 41 41 40 42 44 38 32 32 31 33 36 36 36 38 39 39 37 36 35 35 34 33
27 26 26 27 26 26 26 25 24 25 25 25 26 27 27 28 28 28 29 30 31 32 34 35 37 38 39 40 41 42 43 43 44 44 45 46 48 50 51 52 53 53 53 53 52 51 52 54 56 58 59 58 56 54 53 52 50 49 48 46 44 43 43 45 47 45 42 43 42 44 47 40 33 32 31 34 37 36 34 35 36 37 38 37 36 36 36 34
28 28 27 27 27 27 27 26 25 26 26 26 27 27 28 28 28 29 30 31 32 34 35 36 37 38 40 41 43 44 45 45 46 46 47 48 49 50 52 54 55 54 55 55 55 55 56 56 57 59 60 59 58 57 56 54 52 51 51 49 48 48 47 47 50 48 46 46 44 46 48 42 35 33 30 32 37 36 34 34 35 36 37 37 37 36 36 34
30 29 28 28 28 28 27 26 26 26 27 27 27 28 28 29 29 31 32 33 34 34 36 36 38 39 40 41 42 44 45 46 47 48 49 50 51 51 53 55 56 55 55 56 56 57 58 58 58 59 60 60 60 59 58 57 56 55 54 52 51 51 51 53 53 51 50 49 46 47 48 42 37 35 31 32 37 37 34 34 33 34 36 36 35 35 36 35
32 31 30 29 29 28 28 27 27 27 27 27 27 28 29 30 31 32 33 34 35 36 36 37 38 39 40 41 42 43 45 46 47 48 50 51 51 52 53 55 56 56 56 55 54 54 55 56 57 59 60 61 59 58 56 56 56 56 54 54 53 53 54 56 55 52 51 50 48 48 47 41 36 36 35 35 37 36 33 32 32 33 34 34 33 34 35 35
33 32 31 30 30 29 29 29 29 29 28 28 29 29 30 31 32 33 34 35 36 37 38 39 40 41 41 43 44 45 46 46 47 47 48 48 49 51 52 53 55 56 56 56 56 55 54 52 51 53 56 58 58 58 58 57 57 56 54 52 52 51 51 52 53 52 50 51 51 48 44 40 37 38 38 37 36 34 32 32 32 33 34 34 34 34 34 34
34 32 31 31 30 30 30 30 30 30 30 31 31 31 32 32 33 33 34 36 36 38 39 40 41 43 44 45 46 47 47 47 47 46 46 47 47 48 49 51 53 55 56 57 58 60 62 59 54 54 55 55 54 54 56 58 59 58 58 56 52 49 48 48 50 52 51 52 51 45 41 40 38 39 40 37 36 35 33 33 33 33 34 36 36 36 35 34
35 34 32 32 31 31 31 31 32 32 32 33 33 33 34 34 34 35 36 37 38 39 40 42 43 44 46 47 47 48 48 48 47 45 44 43 44 45 46 48 51 52 54 55 53 55 61 63 59 58 58 58 58 55 54 56 58 59 58 56 52 50 48 48 49 51 52 52 47 41 41 41 38 39 40 38 37 36 34 32 32 32 34 36 37 37 36 35
36 35 34 33 32 31 31 32 32 33 34 34 35 35 36 36 36 37 38 39 40 41 42 43 44 45 46 47 48 49 49 48 47 44 41 40 41 43 44 44 45 47 49 50 48 49 55 58 58 57 55 54 55 54 53 53 53 55 56 55 54 53 52 51 49 48 51 51 46 43 44 40 37 39 40 38 38 36 31 29 31 33 35 36 36 36 36 35
36 36 35 34 33 33 33 33 33 33 34 34 35 36 37 38 38 38 40 41 42 42 43 44 45 46 46 46 46 47 47 47 45 42 39 38 38 39 41 41 41 42 43 44 44 47 50 52 54 58 58 54 50 48 48 48 48 48 51 53 52 52 54 53 52 52 54 51 44 44 45 39 37 39 39 39 39 34 30 31 33 34 35 36 36 36 35 35
37 36 36 35 35 34 35 35 35 35 34 35 36 36 37 38 39 39 41 42 43 44 45 45 46 46 46 45 44 44 43 42 41 39 39 39 37 37 40 39 38 40 41 39 40 42 45 47 48 51 56 57 55 50 48 47 46 45 44 44 44 47 52 53 52 53 52 46 41 43 42 37 36 39 40 41 39 34 33 34 34 34 35 35 35 35 35 35
38 37 37 36 36 35 36 36 36 36 36 36 37 37 38 39 40 40 42 43 44 45 46 46 46 46 45 44 42 41 40 39 38 37 38 39 38 38 39 39 38 40 40 38 38 38 40 42 44 46 50 52 53 54 51 48 48 45 40 38 38 41 48 53 53 50 44 40 41 42 40 37 38 39 39 39 38 36 36 36 34 35 35 35 35 35 34 35
Wind_Direction
250 254 257 256 254 254 255 257 257 258 258 257 257 256 255 254 253 251 251 250 249 248 246 246 245 245 244 244 243 242 240 239 237 235 234 233 232 231 230 227 224 222 220 219 219 219 219 219 220 222 225 227 229 231 233 235 238 239 241 244 243 243 242 242 243 242 242 242 243 244 246 247 247 247 247 245 246 248 249 250 252 253 251 247 245 244 243 244
245 250 253 252 251 250 251 253 254 256 255 254 253 252 252 253 253 252 251 250 248 246 245 244 242 241 239 238 236 235 232 230 227 225 223 221 220 220 219 216 215 214 213 214 215 216 219 222 225 227 230 233 234 236 237 236 237 238 239 241 242 242 243 245 245 243 244 245 246 247 248 249 249 249 249 249 249 249 250 250 251 251 250 250 247 245 244 245
241 244 248 251 249 246 245 249 253 254 255 253 249 246 246 249 253 253 251 249 247 244 242 240 237 234 232 229 227 224 221 217 214 212 210 209 208 209 212 212 212 212 213 214 216 218 221 225 228 230 233 236 238 240 241 238 237 237 238 240 242 244 245 246 246 246 247 248 249 250 251 251 251 251 252 253 253 252 251 251 252 252 251 252 250 247 245 246
239 240 244 249 248 243 241 244 247 248 248 247 244 240 241 247 251 251 250 248 244 241 237 233 229 225 222 218 215 211 207 205 202 201 202 202 202 205 210 214 215 216 218 219 220 222 224 227 230 233 235 237 240 242 243 243 241 240 239 239 240 243 245 246 247 247 248 249 250 251 252 252 253 254 254 256 256 255 255 255 255 254 252 252 252 249 247 247
239 241 243 245 245 242 238 238 241 241 240 243 245 240 238 244 248 248 246 242 239 234 229 223 218 214 211 207 203 201 198 197 197 199 201 203 205 208 212 217 220 223 225 227 228 229 230 231 234 236 238 239 241 243 244 245 245 242 240 239 239 241 244 246 247 248 248 249 250 251 251 253 254 256 259 260 260 259 257 257 256 253 252 252 251 250 248 248
241 242 243 243 242 242 240 238 240 242 243 245 249 248 242 241 241 242 240 235 231 227 221 215 209 206 203 201 199 198 199 200 202 205 207 210 213 215 219 222 225 227 230 232 234 236 237 238 239 240 241 241 241 242 242 242 243 242 241 241 241 242 244 246 248 250 251 251 252 253 254 255 257 260 263 264 264 262 260 258 257 255 254 253 251 251 250 250
243 244 244 243 241 241 242 243 244 246 250 253 254 253 247 243 239 237 235 232 228 223 219 213 208 205 203 203 202 204 206 209 213 216 218 220 222 224 226 228 230 232 234 236 238 240 241 243 244 244 244 244 244 243 242 241 240 240 240 240 241 242 244 246 249 252 253 254 255 256 257 258 261 263 263 264 264 264 263 261 260 260 258 256 254 253 253 254
246 245 245 245 243 241 242 245 248 249 251 255 257 255 251 245 240 237 235 233 230 227 223 218 214 211 209 210 211 213 216 219 223 227 228 229 230 231 233 234 236 237 238 239 240 242 243 245 246 247 247 247 246 245 244 243 242 242 241 242 243 244 246 248 250 253 255 257 258 259 261 262 263 263 262 263 264 265 265 264 263 262 261 260 258 257 257 256
250 248 248 247 247 246 244 244 247 251 253 253 254 254 251 247 243 239 236 234 233 232 230 226 223 221 221 221 222 224 226 228 231 233 235 236 236 237 238 239 240 241 242 242 243 244 245 247 247 248 248 247 247 246 245 245 244 244 245 245 246 248 250 252 254 255 257 258 260 262 263 263 262 262 263 264 265 266 266 265 264 263 263 262 260 259 258 258
253 251 251 250 249 249 249 247 247 249 251 253 252 251 250 248 244 240 237 236 235 235 234 233 231 230 230 230 231 233 234 236 237 239 241 241 241 241 241 242 244 245 246 246 247 247 248 248 248 248 247 246 246 245 245 245 245 246 247 247 248 250 252 253 255 256 258 260 261 262 262 262 261 262 263 264 265 266 266 265 265 264 263 262 261 261 260 260
255 253 252 252 252 251 251 250 249 248 248 249 250 249 248 246 243 240 237 236 236 236 236 236 235 234 234 234 235 237 238 240 242 243 244 245 244 245 245 245 246 247 248 248 249 249 249 248 247 247 247 246 245 245 244 245 246 247 248 249 250 252 253 254 256 258 260 262 263 263 263 263 263 262 263 264 264 265 265 265 265 266 265 264 263 264 263 263
257 255 254 253 252 252 252 252 251 250 248 248 247 247 246 243 241 238 236 235 235 236 237 238 236 235 235 235 236 239 240 241 243 244 245 245 245 246 246 246 246 247 248 248 249 249 249 248 248 247 247 246 246 246 246 247 248 249 250 251 252 252 254 255 257 259 260 262 263 264 264 264 263 263 263 264 264 265 265 266 266 267 268 267 267 266 266 265
261 257 255 254 253 253 252 252 252 252 250 249 247 245 243 241 238 236 235 234 234 235 237 239 238 238 239 240 240 241 242 243 244 245 244 244 244 245 246 247 247 247 248 248 248 249 249 249 248 248 248 248 248 249 249 249 251 252 252 253 253 253 254 256 257 258 259 260 262 263 264 264 264 264 264 265 265 266 266 266 267 268 269 269 270 269 267 266
273 264 259 256 255 253 253 253 253 252 251 249 247 245 243 240 238 236 234 234 234 236 238 240 243 244 246 246 246 246 246 246 247 247 246 245 245 246 247 248 249 249 249 249 249 249 250 250 250 250 250 250 251 251 252 252 254 254 255 255 255 255 256 257 257 258 259 260 262 263 264 266 267 266 267 267 267 266 267 267 268 268 269 270 270 270 269 267
289 280 271 264 260 258 256 254 253 252 251 249 247 246 243 241 239 238 236 236 236 238 240 243 246 248 250 252 252 251 251 250 250 250 249 249 249 249 250 250 251 251 252 252 252 252 252 253 253 253 253 252 252 252 253 254 255 255 256 257 257 258 258 258 258 258 259 261 262 263 264 266 268 269 269 269 268 267 267 268 269 269 269 269 270 270 270 269
294 289 284 278 272 267 263 260 257 254 252 250 248 246 245 244 242 241 240 239 239 240 242 244 247 249 252 254 254 254 254 254 254 253 252 251 251 251 252 252 252 252 253 253 254 254 255 255 255 255 254 254 253 253 254 254 255 255 256 257 258 259 260 260 259 259 260 261 262 263 264 266 267 269 270 269 267 267 268 269 269 269 269 270 271 272 273 273
296 291 288 285 282 278 272 268 264 260 257 254 252 249 248 246 245 244 243 242 242 243 245 247 249 250 252 254 254 255 254 254 254 254 254 253 252 252 252 252 252 252 252 252 253 254 254 254 254 254 254 254 254 254 254 254 255 256 257 258 259 259 260 261 260 260 260 261 262 263 264 265 266 267 267 267 267 267 268 270 270 270 271 271 272 274 276 277
297 293 290 287 283 281 278 274 271 268 265 261 258 255 253 251 249 247 245 244 244 245 247 249 250 252 253 254 254 255 255 255 255 255 255 255 255 253 252 252 252 251 251 252 253 254 254 254 254 254 254 254 254 254 255 256 257 258 259 259 259 260 260 260 261 262 261 261 261 262 262 262 263 264 265 267 268 270 272 272 272 272 273 274 276 278 278 277
296 292 290 286 283 280 277 276 274 272 270 267 265 261 259 256 253 252 249 248 247 248 249 251 252 254 255 255 257 257 256 257 257 257 257 257 256 254 253 253 253 253 253 254 255 256 256 256 255 255 254 254 255 255 256 257 258 259 259 259 259 259 258 259 260 260 261 260 259 260 259 259 262 266 268 268 270 272 274 274 275 276 276 277 279 278 277 274
299 294 290 286 283 281 278 276 275 273 272 270 268 266 262 258 256 255 253 253 252 251 252 253 253 255 255 256 257 258 258 259 259 259 259 258 257 256 256 256 256 257 257 257 257 257 257 258 257 257 256 256 256 257 257 258 259 259 258 257 257 256 256 256 256 257 258 258 258 259 260 262 266 268 269 270 272 275 277 276 276 276 276 276 277 276 274 272
308 302 296 291 286 283 281 278 276 274 272 270 268 267 264 262 260 259 258 257 255 254 255 255 256 256 257 258 259 259 260 259 259 259 259 259 258 259 259 258 259 259 258 259 259 258 257 258 257 257 257 257 257 258 258 258 258 256 255 254 254 254 254 255 255 255 256 257 259 261 263 266 267 266 266 268 272 275 275 275 274 273 272 273 273 273 272 271
315 311 305 300 294 289 286 283 279 276 274 272 269 267 265 263 262 261 260 259 257 257 257 257 258 258 258 259 259 259 259 259 259 259 260 261 261 260 260 260 259 259 259 260 259 259 258 258 257 257 257 257 257 257 257 255 253 252 251 251 252 253 255 256 256 257 259 260 262 264 265 265 264 264 265 266 268 270 271 271 271 271 271 272 272 272 273 273
318 315 312 307 303 298 294 290 285 281 279 276 273 270 268 266 265 263 262 262 261 259 259 258 258 259 259 258 258 259 259 260 260 261 261 261 261 261 261 260 259 260 260 260 261 261 258 257 257 255 254 254 253 252 251 249 248 249 251 252 254 256 257 259 260 261 263 264 265 266 266 264 263 263 265 265 267 268 268 268 269 270 271 272 273 274 275 277
318 317 314 311 308 305 301 297 292 288 286 282 278 276 274 271 269 266 265 264 264 262 261 259 258 259 259 259 259 259 260 261 261 262 261 260 261 261 261 261 261 261 261 261 261 258 254 252 252 250 249 248 247 247 247 247 250 253 256 258 259 260 261 263 264 265 266 267 267 267 267 265 264 265 265 266 268 268 268 268 269 270 271 273 274 275 277 279
316 315 314 313 310 308 305 301 296 294 290 286 283 280 278 275 272 269 268 266 265 263 261 260 258 258 258 258 258 259 260 261 261 261 260 260 260 260 260 261 261 259 258 256 253 248 245 246 245 244 245 245 246 249 249 251 254 257 260 261 262 262 263 264 266 267 267 268 268 268 266 265 265 266 267 268 269 268 268 269 269 270 271 273 274 276 279 281
312 311 311 311 310 308 305 302 298 296 292 288 285 282 278 276 273 270 268 266 265 262 260 259 257 255 256 257 257 258 259 259 259 258 258 258 258 257 257 256 254 253 250 244 240 238 239 242 243 244 246 250 253 254 255 256 257 258 259 261 263 264 265 266 266 267 268 269 270 270 267 264 264 266 266 267 268 268 268 269 270 271 273 274 277 279 281 282
307 307 306 305 306 305 304 301 299 298 295 291 287 284 281 277 274 272 269 268 265 260 259 257 253 252 253 253 255 255 254 255 254 255 256 256 256 257 255 251 250 248 241 234 234 237 239 241 244 248 251 254 255 255 256 258 259 259 261 262 263 265 266 267 268 268 269 270 271 271 269 266 266 269 268 267 269 270 270 271 273 275 276 277 278 280 281 282
304 303 302 301 301 301 300 299 298 297 295 293 290 287 283 279 277 274 273 272 267 260 258 256 251 250 248 247 249 251 251 252 251 251 253 252 250 251 250 246 245 242 234 232 237 243 245 247 250 252 253 254 254 255 258 259 260 262 263 264 265 265 266 267 268 269 269 269 270 271 270 269 268 269 272 272 272 272 272 275 277 277 278 279 279 281 282 281
303 302 301 300 299 297 296 295 294 294 293 292 291 289 286 282 278 276 274 272 267 262 260 258 254 252 251 249 250 250 251 251 249 247 246 245 243 241 239 238 239 239 233 234 244 250 251 253 255 255 253 255 257 259 260 261 262 264 266 266 266 266 266 267 267 268 268 267 268 268 270 271 269 267 271 273 273 272 274 276 277 277 278 280 281 282 282 280
303 302 301 300 298 296 294 292 292 291 290 290 289 288 287 284 280 277 274 270 267 265 263 262 261 260 260 262 263 262 260 256 253 249 244 241 240 238 237 238 240 241 239 240 249 254 254 256 257 258 258 260 263 264 263 264 266 267 267 268 267 266 266 266 267 268 267 267 266 267 269 271 270 269 269 270 270 272 274 275 276 277 278 279 281 281 279 279
303 303 302 300 298 295 293 292 290 289 289 288 288 287 286 285 281 277 273 269 268 268 267 267 266 266 267 270 273 273 269 264 260 256 251 247 245 243 243 245 247 248 248 249 251 255 257 258 260 262 264 267 269 268 268 269 270 269 268 267 267 267 266 266 267 267 266 267 265 265 268 269 271 273 271 268 269 271 273 274 275 276 277 279 279 278 277 278
307 307 305 302 300 297 294 292 290 289 288 287 287 286 285 284 281 277 273 270 269 270 271 271 271 270 270 271 271 269 268 267 264 262 260 257 254 251 250 251 254 255 255 254 254 256 258 260 264 266 267 269 271 273 274 273 272 270 268 267 267 267 268 267 267 266 266 269 268 267 268 269 272 276 274 271 271 272 273 274 273 274 275 276 276 275 276 277
321 319 316 311 307 303 299 296 293 291 290 288 288 287 285 284 282 279 276 274 273 274 275 275 274 273 272 270 267 264 263 263 264 265 265 264 263 261 260 261 262 262 262 261 261 261 261 264 267 268 267 268 271 274 275 274 271 268 267 267 266 268 271 269 268 268 268 271 271 269 270 272 274 276 274 272 272 274 275 275 275 276 276 276 276 276 277 278
334 332 328 323 319 314 309 304 300 297 295 293 291 290 288 285 282 280 279 277 277 278 280 280 279 277 276 273 270 268 267 265 265 266 268 268 268 269 270 271 271 270 269 269 268 269 269 267 267 268 267 268 270 272 273 271 270 269 268 266 266 270 273 271 271 272 272 271 270 269 271 273 275 275 273 272 272 273 275 276 276 277 278 278 278 278 279 280
332 330 328 324 321 318 313 309 306 304 302 300 297 295 292 288 284 283 283 283 282 283 285 285 283 280 278 276 275 274 274 272 271 271 271 272 272 272 272 272 272 272 272 273 273 273 272 270 268 269 268 268 269 271 271 270 269 268 267 267 268 270 272 274 275 276 276 273 271 270 270 272 273 273 274 275 273 272 273 275 277 278 279 279 279 279 280 279
321 319 318 315 313 311 308 305 303 302 301 300 300 299 296 292 290 289 289 289 288 287 287 287 286 284 281 279 279 279 278 277 276 276 276 276 276 275 274 273 272 271 272 274 273 273 272 271 269 268 268 269 269 269 268 268 268 267 268 270 272 271 271 274 277 276 276 275 271 270 271 271 271 272 275 278 276 275 275 276 278 279 280 280 280 280 279 279
315 313 310 307 304 302 300 298 295 294 294 294 295 294 293 292 292 292 290 289 287 285 283 283 283 284 284 283 282 281 281 280 279 278 278 278 278 278 278 278 275 274 272 271 270 271 272 272 271 270 271 271 270 269 268 267 268 269 270 272 272 271 272 275 278 278 278 277 272 269 270 270 270 272 276 278 277 277 276 277 278 279 279 279 279 279 279 279
314 312 308 305 302 299 296 293 290 288 288 288 288 288 288 288 287 287 285 284 284 283 282 281 281 281 283 283 282 282 281 281 280 280 279 279 278 278 277 276 274 273 273 271 271 273 273 273 274 273 273 272 270 269 269 269 270 272 274 272 271 272 275 277 278 278 281 283 278 272 269 268 269 274 277 279 280 279 278 277 277 278 278 277 277 277 278 278
317 314 310 306 302 298 295 291 288 285 284 283 283 283 284 284 284 284 283 283 284 284 284 284 283 283 283 283 283 282 280 280 279 278 278 278 278 276 275 274 273 273 272 271 272 273 273 272 274 275 273 271 270 269 270 272 274 274 275 272 271 275 278 278 277 276 280 285 283 277 271 266 268 275 279 281 283 281 280 278 277 276 276 276 276 277 276 276
320 317 313 309 304 300 296 292 289 286 283 281 280 282 283 283 284 284 284 285 285 285 284 284 284 284 284 284 284 283 281 280 279 278 276 276 276 274 273 273 273 271 270 270 270 270 269 269 271 273 272 270 271 272 273 274 272 271 270 269 270 274 277 277 276 275 278 283 285 282 275 268 271 279 282 282 281 280 279 278 276 276 276 277 277 275 275 276
320 317 314 311 307 302 298 295 292 288 285 283 282 283 283 283 283 284 285 286 285 285 284 284 284 284 285 284 283 283 282 281 279 278 277 276 275 273 271 271 269 267 266 266 266 266 265 265 267 270 270 271 272 272 272 272 270 269 268 267 267 269 271 272 274 276 278 282 285 282 276 274 278 282 284 284 280 278 277 275 274 275 277 277 276 275 276 278
321 318 315 312 309 304 301 298 296 292 289 287 285 285 284 284 285 285 286 285 285 284 284 284 284 285 285 285 284 283 283 282 280 278 277 275 273 271 271 270 268 266 265 263 263 262 262 263 265 268 269 271 272 271 271 272 271 269 268 268 267 267 267 270 274 277 278 280 281 280 279 279 280 281 283 282 277 276 277 275 272 274 276 276 276 277 278 279
322 319 315 312 308 305 302 300 297 293 290 288 287 286 286 286 286 287 286 286 285 285 285 285 286 286 285 286 286 285 284 283 282 280 278 275 272 269 269 268 267 266 266 265 263 262 262 263 264 266 268 269 270 270 270 270 269 267 268 270 270 271 270 271 275 275 274 276 279 280 280 281 281 281 282 279 276 277 277 273 270 272 275 277 279 279 279 279
321 319 316 312 308 305 302 300 297 294 291 289 288 288 288 288 289 290 289 289 288 288 288 287 287 287 287 287 287 287 286 285 284 282 280 276 273 270 267 265 264 264 264 265 265 266 266 266 266 266 267 267 267 268 268 269 269 268 269 271 271 272 271 271 271 270 269 273 277 278 278 280 282 283 282 280 279 279 277 272 270 273 275 277 279 279 280 281
321 319 316 312 308 305 304 302 299 297 295 293 292 291 292 293 293 293 293 293 292 292 291 291 290 290 291 291 290 289 288 287 286 284 282 279 276 273 268 265 263 261 261 261 262 264 266 266 266 266 266 265 265 267 268 268 266 265 265 266 267 268 270 270 268 264 266 271 273 274 276 278 281 283 284 283 280 280 279 274 272 273 274 276 277 279 280 281
320 319 317 313 309 306 304 302 301 299 298 296 294 294 294 294 295 295 296 296 296 296 295 295 295 295 295 295 295 294 292 291 290 288 285 281 278 274 272 268 264 261 259 257 255 255 257 258 260 262 263 264 264 265 266 265 263 263 262 262 264 266 266 266 262 260 265 270 271 273 276 276 278 283 285 283 281 282 281 275 273 273 275 277 279 280 280 279
319 318 316 313 310 307 305 303 301 300 298 296 295 294 294 294 294 295 297 298 298 299 299 299 299 300 299 299 298 297 296 294 293 291 289 285 280 276 274 270 266 263 259 257 254 253 252 251 253 256 259 260 262 262 263 263 263 263 264 265 265 264 261 257 255 258 262 266 268 271 274 274 276 281 282 282 282 283 280 275 274 275 277 281 283 282 280 279
318 317 316 314 312 310 307 304 303 302 300 298 296 295 294 294 295 297 299 301 302 302 302 303 302 302 302 300 299 297 296 295 294 292 289 285 281 278 275 271 270 268 265 261 258 257 256 253 251 255 258 258 259 260 260 261 260 260 262 263 261 259 257 255 256 260 263 265 268 270 270 271 275 278 279 281 282 282 278 275 273 276 280 284 284 282 280 279
316 316 315 314 312 310 307 305 303 302 301 300 298 297 297 296 297 299 301 303 304 305 305 304 304 303 302 301 299 298 297 296 295 293 289 283 280 278 276 273 272 272 270 267 263 261 261 258 253 254 255 255 255 257 258 258 257 256 256 258 258 257 258 257 257 260 263 265 268 269 268 270 273 275 278 281 280 278 275 274 274 278 282 283 282 280 279 278
314 314 314 313 312 311 308 306 304 302 301 300 299 298 298 297 298 301 303 305 305 306 306 305 304 303 302 301 300 298 298 297 296 294 289 283 280 279 277 276 274 272 271 269 265 261 261 261 257 255 256 253 250 254 257 256 256 257 254 255 258 259 259 258 255 255 257 261 264 267 268 270 273 276 278 278 276 274 274 277 280 281 282 281 280 279 277 277
313 313 313 313 312 311 309 307 305 304 302 301 300 299 299 298 299 301 304 306 306 307 306 305 304 303 301 300 299 298 297 296 294 292 288 284 281 279 278 278 276 273 271 269 267 263 262 262 260 258 258 255 251 254 258 256 256 257 253 253 258 260 259 258 254 251 253 257 261 264 266 270 274 275 274 273 273 273 277 281 283 282 282 281 279 277 277 277
312 312 312 311 311 310 310 308 307 305 303 303 302 301 300 300 301 302 304 306 306 306 306 305 304 302 300 300 299 297 296 294 291 289 286 284 282 280 279 279 276 274 272 269 266 265 265 264 262 260 260 257 253 253 256 258 258 256 252 253 256 257 257 256 253 251 253 256 258 262 267 272 273 271 271 270 270 274 278 282 283 283 282 280 278 277 278 279
Height
5760 5760 5760 5760 5759 5759 5759 5759 5759 5759 5759 5759 5759 5759 5759 5759 5760 5760 5760 5760 5761 5761 5762 5762 5763 5764 5765 5766 5767 5768 5769 5769 5770 5771 5772 5773 5774 5775 5776 5777 5778 5779 5780 5781 5782 5784 5784 5785 5786 5787 5788 5789 5790 5791 5792 5793 5794 5795 5795 5796 5797 5797 5798 5799 5800 5801 5802 5803 5804 5805 5805 5806 5807 5807 5808 5808 5809 5809 5810 5811 5812 5812 5813 5813 5813 5813 5813 5813
5759 5759 5759 5759 5758 5758 5758 5758 5758 5758 5758 5758 5758 5758 5758 5758 5758 5758 5759 5759 5759 5760 5760 5761 5762 5763 5763 5764 5765 5766 5767 5768 5769 5770 5771 5772 5773 5774 5775 5776 5777 5778 5779 5780 5781 5783 5783 5784 5785 5786 5787 5787 5788 5789 5790 5791 5792 5793 5794 5795 5795 5796 5797 5798 5799 5799 5800 5801 5802 5803 5803 5804 5805 5805 5805 5806 5807 5808 5809 5810 5810 5811 5811 5811 5812 5812 5812 5811
5758 5758 5758 5758 5758 5758 5758 5758 5758 5758 5758 5758 5758 5758 5758 5758 5758 5758 5758 5758 5758 5759 5759 5760 5761 5761 5762 5763 5764 5765 5766 5767 5768 5769 5770 5771 5772 5773 5774 5775 5776 5777 5778 5779 5780 5781 5782 5783 5784 5784 5785 5786 5787 5788 5789 5790 5790 5791 5792 5793 5793 5794 5795 5796 5797 5798 5798 5799 5800 5800 5801 5801 5802 5802 5803 5803 5804 5806 5807 5808 5808 5809 5809 5809 5809 5810 5810 5809
5757 5757 5757 5757 5757 5757 5757 5757 5757 5757 5757 5757 5757 5757 5757 5757 5757 5757 5757 5757 5758 5758 5759 5759 5760 5761 5761 5762 5763 5764 5765 5766 5767 5768 5769 5770 5771 5772 5773 5774 5775 5776 5777 5778 5779 5780 5780 5781 5782 5783 5783 5784 5785 5786 5787 5788 5789 5790 5791 5791 5792 5792 5793 5794 5795 5796 5796 5797 5797 5798 5798 5799 5799 5800 5800 5801 5802 5803 5804 5805 5806 5807 5807 5807 5807 5807 5807 5807
5756 5756 5756 5756 5757 5757 5757 5757 5757 5757 5757 5757 5757 5757 5757 5757 5757 5757 5757 5757 5757 5758 5758 5759 5760 5760 5761 5762 5763 5764 5765 5766 5767 5768 5769 5770 5771 5772 5773 5774 5775 5775 5776 5777 5777 5778 5779 5779 5780 5781 5782 5783 5783 5784 5785 5786 5787 5788 5789 5789 5790 5790 5791 5792 5792 5793 5794 5794 5795 5795 5796 5796 5797 5797 5798 5799 5799 5801 5802 5803 5803 5804 5804 5804 5804 5804 5804 5804
5755 5755 5755 5756 5756 5756 5756 5757 5757 5757 5757 5757 5757 5756 5756 5757 5757 5757 5757 5757 5757 5758 5758 5759 5759 5760 5761 5762 5763 5764 5765 5766 5767 5768 5769 5770 5771 5772 5772 5773 5774 5775 5775 5776 5776 5777 5777 5778 5779 5779 5780 5781 5782 5782 5783 5784 5785 5786 5786 5787 5788 5788 5789 5789 5790 5790 5791 5792 5792 5793 5794 5794 5795 5795 5795 5796 5796 5798 5799 5800 5800 5800 5801 5801 5801 5801 5801 5802
5754 5754 5755 5755 5755 5755 5756 5756 5756 5756 5756 5756 5756 5756 5756 5756 5756 5757 5757 5757 5757 5757 5758 5758 5759 5760 5761 5762 5763 5764 5765 5766 5767 5768 5769 5769 5770 5771 5772 5772 5773 5773 5774 5775 5775 5775 5776 5776 5777 5778 5779 5779 5780 5780 5781 5782 5782 5783 5784 5785 5785 5786 5787 5787 5787 5788 5788 5789 5790 5790 5791 5792 5793 5793 5793 5793 5793 5794 5795 5796 5796 5797 5797 5798 5798 5798 5798 5799
5753 5754 5754 5754 5754 5755 5755 5755 5756 5756 5756 5756 5756 5756 5756 5756 5756 5756 5756 5756 5757 5757 5757 5758 5759 5760 5761 5762 5763 5764 5764 5765 5766 5767 5768 5768 5769 5770 5770 5771 5772 5772 5773 5773 5774 5774 5774 5775 5775 5776 5777 5777 5778 5778 5779 5780 5780 5781 5781 5782 5783 5784 5784 5785 5785 5785 5786 5786 5787 5788 5789 5790 5790 5790 5790 5790 5790 5791 5792 5793 5793 5793 5794 5794 5795 5795 5795 5796
5753 5753 5753 5753 5754 5754 5754 5755 5755 5755 5755 5755 5755 5755 5755 5755 5755 5756 5756 5756 5756 5756 5757 5758 5759 5760 5761 5761 5762 5763 5764 5764 5765 5766 5766 5767 5768 5768 5769 5770 5770 5771 5771 5772 5772 5772 5773 5773 5774 5774 5775 5775 5776 5776 5777 5777 5778 5778 5779 5780 5781 5781 5782 5782 5782 5783 5783 5783 5784 5785 5786 5787 5787 5787 5787 5787 5787 5788 5789 5789 5789 5790 5790 5791 5791 5792 5792 5792
5752 5752 5752 5752 5753 5753 5753 5753 5754 5754 5754 5754 5754 5754 5755 5755 5755 5755 5755 5755 5755 5756 5756 5757 5758 5759 5760 5760 5761 5761 5762 5763 5763 5764 5765 5765 5766 5767 5767 5768 5768 5769 5769 5770 5770 5770 5771 5771 5772 5772 5773 5773 5774 5774 5774 5774 5775 5776 5777 5778 5779 5779 5779 5779 5779 5779 5780 5780 5781 5782 5783 5783 5784 5784 5784 5784 5784 5784 5785 5785 5786 5786 5787 5787 5788 5788 5789 5789
5751 5751 5751 5751 5751 5752 5752 5752 5752 5753 5753 5753 5753 5754 5754 5754 5754 5754 5754 5754 5754 5755 5755 5756 5757 5758 5758 5759 5759 5760 5761 5761 5762 5763 5763 5764 5764 5765 5766 5766 5767 5767 5767 5768 5768 5768 5769 5769 5770 5770 5770 5771 5771 5771 5772 5772 5773 5774 5774 5775 5776 5777 5777 5777 5776 5777 5777 5777 5778 5779 5779 5780 5780 5781 5781 5781 5781 5781 5781 5782 5782 5782 5783 5783 5784 5785 5785 5785
5750 5750 5750 5750 5750 5750 5751 5751 5751 5751 5752 5752 5752 5752 5753 5753 5753 5753 5753 5753 5754 5754 5754 5755 5755 5756 5756 5757 5757 5758 5759 5759 5760 5761 5761 5762 5762 5763 5763 5764 5764 5765 5765 5765 5766 5766 5766 5767 5767 5768 5768 5769 5769 5769 5769 5770 5770 5771 5772 5773 5774 5774 5773 5774 5774 5775 5774 5774 5774 5775 5776 5776 5776 5777 5777 5777 5777 5777 5778 5778 5778 5779 5779 5779 5780 5781 5781 5781
5749 5749 5748 5748 5749 5749 5749 5749 5750 5750 5750 5750 5751 5751 5751 5751 5751 5752 5752 5752 5752 5753 5753 5753 5754 5754 5755 5755 5756 5756 5757 5758 5758 5759 5759 5760 5760 5761 5761 5761 5762 5762 5762 5763 5763 5763 5764 5764 5765 5765 5766 5766 5766 5766 5767 5767 5767 5768 5769 5769 5770 5770 5770 5771 5772 5772 5771 5771 5771 5772 5772 5771 5772 5773 5773 5774 5774 5773 5774 5774 5775 5775 5775 5775 5776 5777 5777 5777
5748 5748 5747 5747 5747 5747 5748 5748 5748 5748 5749 5749 5749 5749 5749 5750 5750 5750 5750 5751 5751 5751 5751 5751 5752 5753 5753 5753 5754 5755 5755 5756 5756 5757 5757 5757 5758 5758 5759 5759 5759 5760 5760 5760 5761 5761 5761 5762 5763 5763 5763 5763 5764 5764 5764 5764 5764 5765 5766 5766 5767 5767 5767 5768 5769 5768 5768 5768 5769 5769 5769 5768 5768 5769 5770 5770 5769 5769 5770 5770 5771 5771 5771 5772 5772 5772 5773 5773
5747 5747 5746 5746 5746 5746 5746 5746 5746 5747 5747 5747 5747 5747 5747 5747 5748 5748 5749 5749 5750 5750 5750 5750 5750 5751 5751 5752 5752 5753 5753 5754 5754 5754 5755 5755 5756 5756 5756 5757 5757 5757 5758 5758 5758 5759 5759 5760 5760 5760 5760 5761 5761 5761 5761 5761 5762 5762 5762 5763 5763 5764 5764 5765 5766 5766 5766 5766 5766 5767 5766 5765 5765 5765 5766 5765 5765 5765 5766 5766 5767 5767 5767 5768 5768 5768 5769 5769
5747 5746 5746 5745 5745 5745 5745 5745 5745 5745 5745 5745 5745 5745 5745 5745 5746 5746 5747 5747 5748 5748 5748 5748 5749 5749 5749 5749 5750 5751 5751 5751 5752 5752 5752 5753 5753 5754 5754 5754 5754 5755 5755 5755 5756 5756 5757 5757 5757 5757 5757 5757 5758 5758 5758 5759 5758 5759 5760 5760 5760 5761 5760 5761 5762 5763 5763 5763 5763 5764 5763 5762 5761 5762 5762 5760 5759 5761 5762 5763 5763 5763 5763 5764 5764 5765 5765 5765
5746 5745 5745 5745 5744 5744 5744 5743 5743 5743 5743 5743 5743 5743 5743 5744 5744 5745 5745 5746 5746 5746 5746 5747 5747 5747 5747 5747 5748 5748 5749 5749 5749 5750 5750 5750 5751 5751 5752 5752 5752 5752 5753 5753 5754 5754 5754 5755 5755 5754 5754 5755 5755 5755 5755 5755 5755 5756 5757 5757 5757 5758 5757 5757 5758 5759 5760 5760 5760 5760 5760 5759 5758 5759 5758 5756 5755 5757 5759 5760 5759 5759 5759 5759 5760 5761 5762 5762
5745 5744 5744 5743 5743 5743 5742 5742 5742 5742 5741 5741 5741 5742 5742 5742 5743 5743 5743 5744 5744 5744 5745 5745 5745 5745 5745 5745 5745 5746 5746 5746 5747 5747 5748 5748 5749 5749 5749 5750 5750 5750 5750 5751 5751 5752 5752 5752 5752 5752 5752 5751 5751 5752 5752 5752 5753 5753 5754 5754 5754 5754 5754 5754 5754 5756 5757 5757 5756 5756 5757 5756 5755 5755 5755 5752 5751 5753 5756 5756 5756 5756 5755 5755 5757 5758 5758 5759
5743 5743 5742 5742 5742 5741 5741 5740 5740 5740 5740 5740 5740 5740 5741 5741 5741 5741 5741 5742 5742 5742 5743 5743 5743 5743 5743 5743 5743 5744 5744 5744 5745 5745 5745 5746 5746 5747 5747 5747 5747 5747 5748 5749 5749 5749 5749 5749 5749 5749 5748 5748 5749 5749 5749 5749 5750 5750 5751 5751 5750 5751 5751 5751 5751 5752 5752 5753 5753 5753 5753 5753 5753 5752 5752 5749 5748 5751 5753 5753 5752 5752 5751 5751 5753 5754 5754 5755
5742 5741 5741 5740 5740 5739 5739 5739 5739 5738 5738 5738 5738 5739 5739 5739 5739 5739 5740 5740 5740 5740 5741 5741 5741 5741 5741 5741 5741 5742 5742 5742 5743 5743 5743 5744 5744 5744 5744 5745 5744 5745 5745 5746 5747 5747 5746 5746 5746 5745 5745 5745 5746 5746 5746 5746 5747 5747 5747 5747 5747 5747 5747 5747 5748 5749 5749 5749 5749 5749 5750 5751 5751 5750 5748 5746 5745 5748 5749 5749 5749 5749 5748 5748 5749 5749 5750 5750
5741 5740 5739 5739 5738 5738 5737 5737 5737 5737 5736 5736 5736 5737 5737 5737 5737 5737 5737 5738 5738 5738 5738 5739 5739 5738 5738 5738 5739 5739 5739 5740 5740 5740 5740 5741 5741 5741 5741 5742 5742 5742 5742 5743 5743 5743 5743 5743 5742 5742 5742 5742 5742 5742 5742 5743 5743 5743 5743 5743 5743 5744 5743 5744 5745 5745 5746 5746 5746 5746 5748 5749 5748 5746 5745 5744 5744 5745 5746 5746 5746 5745 5745 5745 5745 5745 5745 5745
5740 5739 5738 5737 5737 5736 5736 5735 5735 5734 5734 5734 5734 5734 5734 5734 5735 5735 5735 5735 5735 5736 5736 5736 5736 5735 5735 5736 5736 5736 5736 5736 5737 5737 5738 5738 5738 5738 5738 5738 5738 5738 5739 5740 5740 5740 5740 5739 5738 5739 5738 5738 5739 5739 5739 5740 5740 5739 5739 5740 5740 5741 5740 5741 5742 5742 5742 5743 5743 5743 5745 5746 5744 5742 5742 5742 5742 5743 5743 5742 5742 5742 5742 5742 5741 5741 5740 5741
5739 5738 5737 5736 5735 5735 5734 5734 5733 5732 5732 5732 5732 5732 5732 5732 5732 5732 5732 5732 5732 5733 5733 5733 5733 5732 5732 5732 5732 5733 5733 5733 5734 5734 5735 5735 5734 5735 5735 5735 5735 5736 5736 5736 5736 5737 5737 5735 5735 5735 5735 5735 5735 5736 5736 5737 5736 5736 5736 5737 5737 5737 5737 5737 5738 5738 5738 5739 5739 5739 5741 5742 5740 5739 5739 5739 5740 5740 5739 5738 5738 5738 5738 5738 5737 5737 5737 5737
5738 5737 5736 5735 5734 5734 5733 5732 5732 5731 5731 5730 5730 5730 5730 5729 5729 5729 5730 5730 5730 5730 5730 5730 5730 5729 5729 5729 5729 5729 5729 5730 5731 5731 5731 5731 5731 5731 5731 5731 5732 5732 5732 5733 5733 5733 5732 5732 5732 5732 5732 5732 5733 5733 5733 5733 5733 5733 5733 5734 5734 5734 5734 5733 5734 5735 5735 5735 5736 5736 5737 5738 5737 5736 5736 5735 5736 5736 5735 5735 5735 5735 5735 5734 5734 5733 5733 5734
5737 5736 5735 5734 5733 5732 5732 5731 5730 5730 5729 5729 5728 5728 5728 5727 5727 5727 5727 5727 5727 5727 5727 5727 5727 5726 5726 5726 5726 5726 5726 5727 5727 5727 5727 5727 5727 5728 5728 5728 5729 5728 5729 5729 5730 5729 5729 5729 5729 5729 5729 5730 5730 5730 5730 5731 5730 5730 5730 5730 5730 5730 5730 5730 5730 5731 5731 5731 5732 5732 5732 5734 5733 5732 5732 5732 5732 5732 5731 5731 5731 5731 5731 5731 5731 5731 5731 5731
5735 5735 5734 5733 5732 5731 5730 5729 5729 5728 5728 5727 5727 5727 5726 5726 5725 5725 5725 5725 5725 5725 5725 5724 5724 5723 5723 5723 5723 5723 5723 5724 5724 5724 5724 5724 5724 5725 5725 5725 5725 5725 5726 5727 5727 5726 5726 5726 5727 5727 5727 5727 5727 5727 5727 5728 5727 5727 5728 5727 5727 5727 5727 5727 5727 5727 5728 5728 5728 5727 5727 5729 5730 5728 5729 5729 5728 5727 5727 5727 5727 5728 5728 5728 5728 5728 5728 5727
5733 5733 5732 5732 5731 5730 5729 5728 5727 5727 5726 5726 5726 5725 5725 5724 5724 5724 5723 5723 5723 5723 5722 5722 5722 5721 5721 5721 5720 5721 5720 5721 5721 5721 5722 5722 5722 5722 5723 5723 5723 5723 5724 5725 5725 5724 5724 5724 5725 5725 5725 5725 5724 5724 5724 5725 5724 5724 5725 5725 5724 5724 5723 5723 5723 5723 5724 5724 5724 5723 5722 5724 5727 5726 5724 5725 5724 5723 5723 5723 5723 5724 5724 5724 5725 5724 5724 5724
5732 5731 5730 5730 5729 5728 5727 5727 5726 5725 5725 5725 5724 5724 5723 5723 5722 5722 5722 5721 5721 5720 5720 5720 5720 5719 5719 5718 5718 5718 5718 5719 5719 5719 5719 5719 5720 5720 5721 5721 5721 5721 5723 5723 5722 5722 5722 5722 5723 5723 5723 5722 5721 5721 5722 5722 5721 5722 5722 5722 5721 5721 5720 5720 5720 5720 5720 5721 5721 5719 5717 5719 5723 5723 5720 5720 5720 5719 5719 5720 5720 5720 5720 5720 5720 5720 5720 5720
5730 5729 5729 5728 5727 5726 5725 5725 5724 5723 5723 5723 5722 5722 5722 5721 5721 5720 5719 5719 5718 5718 5718 5718 5718 5718 5717 5717 5717 5717 5717 5717 5717 5718 5717 5717 5718 5718 5718 5719 5719 5719 5720 5721 5720 5720 5720 5721 5721 5721 5720 5719 5719 5720 5720 5719 5719 5719 5719 5719 5718 5717 5717 5717 5717 5716 5716 5717 5718 5716 5714 5714 5718 5721 5719 5716 5715 5715 5716 5717 5716 5716 5716 5716 5717 5716 5716 5715
5728 5727 5727 5726 5725 5724 5723 5723 5722 5721 5721 5720 5720 5720 5719 5719 5718 5718 5717 5716 5716 5716 5716 5717 5717 5717 5717 5717 5717 5716 5716 5716 5716 5716 5716 5716 5716 5716 5716 5716 5716 5717 5717 5718 5718 5718 5718 5719 5719 5719 5718 5717 5717 5718 5717 5716 5716 5716 5716 5715 5714 5714 5714 5714 5713 5713 5712 5713 5714 5712 5711 5711 5712 5716 5717 5713 5711 5712 5713 5714 5713 5712 5713 5713 5713 5713 5712 5711
5726 5725 5724 5724 5723 5722 5721 5720 5720 5719 5718 5718 5718 5717 5717 5716 5716 5715 5714 5714 5713 5713 5714 5715 5715 5715 5716 5716 5716 5716 5715 5715 5714 5714 5714 5714 5714 5714 5714 5714 5714 5714 5715 5716 5715 5715 5715 5716 5717 5717 5716 5715 5715 5715 5714 5714 5713 5713 5713 5712 5711 5710 5711 5710 5710 5710 5708 5709 5710 5709 5708 5707 5709 5712 5712 5709 5708 5709 5709 5710 5709 5709 5709 5709 5709 5709 5708 5707
5724 5723 5722 5722 5721 5720 5719 5718 5718 5717 5716 5716 5715 5715 5715 5714 5713 5713 5713 5712 5711 5711 5712 5713 5714 5714 5714 5715 5715 5714 5714 5714 5713 5712 5712 5712 5713 5713 5713 5712 5712 5712 5713 5713 5712 5712 5712 5713 5714 5714 5714 5713 5712 5712 5712 5711 5711 5710 5709 5709 5708 5707 5707 5707 5707 5706 5705 5705 5706 5706 5704 5704 5706 5708 5707 5706 5705 5705 5705 5706 5706 5705 5706 5706 5705 5705 5704 5704
5723 5722 5721 5720 5719 5718 5717 5716 5715 5715 5714 5713 5713 5712 5712 5711 5710 5710 5710 5710 5710 5710 5710 5711 5712 5712 5712 5712 5712 5711 5712 5712 5711 5710 5710 5710 5710 5711 5711 5711 5710 5709 5709 5709 5709 5709 5709 5711 5712 5711 5711 5710 5709 5709 5709 5708 5707 5707 5707 5706 5705 5705 5704 5703 5702 5702 5703 5703 5702 5702 5701 5701 5703 5703 5703 5702 5701 5701 5701 5701 5701 5702 5702 5702 5701 5701 5701 5701
5722 5721 5720 5719 5718 5717 5715 5714 5714 5713 5712 5712 5711 5710 5709 5709 5708 5708 5708 5708 5708 5708 5708 5709 5709 5709 5709 5710 5709 5708 5709 5709 5708 5708 5707 5707 5708 5709 5709 5708 5708 5707 5706 5705 5705 5705 5706 5707 5709 5708 5707 5707 5706 5706 5706 5705 5704 5703 5704 5703 5703 5703 5701 5698 5698 5699 5699 5699 5699 5698 5697 5698 5699 5699 5698 5698 5697 5697 5697 5697 5697 5697 5697 5697 5697 5697 5696 5696
5721 5720 5719 5718 5717 5716 5715 5713 5712 5712 5711 5710 5709 5708 5707 5707 5706 5706 5705 5706 5706 5706 5706 5705 5705 5706 5706 5706 5706 5705 5705 5705 5705 5705 5704 5704 5705 5706 5707 5706 5705 5704 5703 5702 5702 5701 5700 5702 5705 5704 5703 5703 5703 5703 5702 5700 5700 5700 5699 5699 5700 5700 5697 5695 5695 5695 5694 5694 5694 5695 5694 5695 5695 5695 5694 5693 5692 5693 5693 5693 5693 5692 5693 5692 5692 5692 5691 5691
5720 5719 5718 5717 5716 5715 5713 5712 5711 5710 5709 5709 5708 5707 5706 5705 5704 5704 5704 5703 5703 5703 5703 5702 5701 5701 5702 5702 5702 5702 5701 5701 5701 5701 5701 5701 5701 5702 5703 5703 5703 5702 5700 5698 5697 5696 5695 5696 5699 5699 5698 5699 5699 5699 5697 5696 5695 5695 5695 5697 5697 5696 5694 5692 5691 5691 5690 5689 5689 5691 5691 5691 5691 5691 5691 5689 5687 5688 5689 5689 5688 5688 5688 5688 5687 5686 5686 5686
5718 5717 5716 5715 5714 5713 5712 5711 5710 5709 5708 5707 5706 5705 5704 5703 5702 5702 5701 5701 5700 5700 5700 5700 5699 5698 5698 5698 5698 5698 5697 5697 5697 5697 5697 5697 5697 5698 5698 5699 5698 5697 5697 5694 5691 5691 5689 5689 5693 5695 5694 5695 5694 5693 5693 5692 5691 5691 5692 5694 5693 5690 5690 5689 5687 5686 5685 5684 5684 5686 5687 5687 5688 5688 5687 5685 5683 5683 5683 5684 5684 5684 5683 5683 5682 5681 5681 5681
5716 5715 5714 5713 5711 5710 5709 5708 5707 5706 5705 5705 5704 5703 5702 5701 5700 5699 5699 5698 5698 5697 5697 5696 5696 5696 5695 5694 5694 5694 5694 5693 5692 5692 5692 5692 5693 5693 5692 5692 5692 5692 5691 5688 5687 5687 5685 5682 5685 5689 5690 5689 5689 5688 5688 5688 5687 5688 5689 5689 5688 5686 5686 5685 5684 5682 5681 5680 5680 5681 5682 5683 5685 5684 5683 5681 5679 5678 5678 5679 5679 5679 5679 5678 5678 5677 5677 5677
5713 5712 5711 5710 5709 5707 5706 5705 5705 5704 5703 5702 5701 5700 5699 5699 5697 5696 5696 5695 5695 5694 5693 5693 5692 5692 5692 5691 5690 5690 5690 5689 5688 5688 5687 5687 5688 5687 5686 5685 5686 5686 5685 5684 5682 5682 5680 5677 5678 5682 5684 5683 5683 5682 5683 5684 5684 5684 5684 5683 5682 5682 5681 5681 5679 5678 5678 5676 5675 5675 5676 5679 5682 5681 5679 5678 5676 5674 5673 5674 5674 5674 5674 5674 5674 5674 5673 5673
5711 5709 5708 5707 5705 5704 5703 5702 5701 5701 5700 5699 5698 5697 5696 5695 5694 5693 5693 5692 5691 5690 5689 5689 5688 5688 5687 5687 5686 5685 5685 5685 5684 5683 5682 5682 5682 5681 5680 5680 5680 5680 5679 5678 5678 5677 5675 5672 5671 5675 5676 5675 5676 5677 5679 5680 5679 5679 5679 5678 5678 5678 5676 5675 5674 5674 5674 5672 5671 5669 5669 5675 5679 5677 5676 5674 5672 5670 5668 5668 5669 5669 5669 5669 5669 5670 5669 5669
5709 5707 5705 5704 5702 5701 5700 5699 5698 5697 5696 5695 5694 5694 5693 5692 5691 5690 5689 5689 5687 5686 5685 5684 5683 5683 5682 5681 5680 5679 5678 5678 5678 5677 5676 5676 5676 5675 5674 5674 5673 5672 5672 5673 5672 5671 5669 5666 5665 5667 5667 5668 5670 5672 5673 5674 5673 5673 5673 5672 5673 5673 5672 5670 5668 5669 5669 5667 5667 5664 5662 5670 5675 5673 5672 5670 5667 5666 5664 5664 5664 5664 5664 5665 5665 5665 5665 5665
5706 5704 5703 5701 5699 5698 5696 5695 5695 5693 5692 5691 5690 5690 5689 5688 5687 5686 5686 5684 5683 5682 5681 5679 5678 5677 5676 5675 5674 5673 5672 5672 5672 5671 5670 5670 5669 5668 5668 5667 5666 5665 5665 5665 5665 5664 5662 5660 5659 5659 5660 5662 5664 5665 5666 5667 5667 5666 5666 5667 5668 5667 5667 5665 5663 5664 5665 5662 5662 5659 5656 5665 5671 5670 5669 5665 5661 5661 5661 5660 5660 5660 5660 5660 5660 5660 5660 5660
5703 5701 5700 5698 5696 5694 5693 5692 5691 5690 5689 5688 5687 5686 5685 5684 5683 5682 5681 5680 5678 5677 5676 5675 5673 5672 5671 5669 5668 5666 5665 5665 5664 5664 5663 5662 5662 5661 5661 5659 5659 5658 5657 5656 5656 5655 5654 5654 5653 5652 5654 5655 5657 5658 5659 5660 5660 5660 5660 5661 5661 5661 5661 5660 5658 5660 5658 5656 5658 5655 5652 5660 5665 5665 5664 5661 5657 5657 5657 5656 5656 5656 5655 5655 5656 5655 5655 5655
5700 5698 5697 5695 5693 5691 5690 5689 5688 5686 5685 5684 5683 5682 5680 5679 5678 5677 5676 5674 5673 5672 5671 5670 5668 5666 5665 5664 5662 5660 5658 5657 5657 5656 5654 5653 5653 5654 5653 5651 5650 5651 5650 5648 5648 5647 5647 5647 5647 5646 5646 5647 5648 5650 5652 5654 5654 5653 5654 5655 5655 5655 5656 5654 5654 5654 5651 5651 5654 5650 5649 5656 5660 5658 5659 5657 5653 5653 5653 5652 5652 5652 5651 5651 5651 5650 5649 5649
5697 5695 5693 5691 5690 5688 5686 5685 5684 5682 5681 5680 5679 5678 5676 5675 5673 5672 5670 5669 5668 5667 5665 5664 5662 5660 5659 5657 5655 5653 5651 5649 5648 5647 5646 5644 5644 5644 5643 5642 5642 5642 5642 5641 5641 5641 5640 5640 5641 5639 5638 5639 5641 5643 5646 5647 5647 5646 5648 5649 5649 5650 5649 5648 5648 5646 5645 5647 5648 5646 5647 5653 5654 5652 5652 5652 5649 5648 5648 5647 5647 5647 5646 5646 5646 5646 5645 5644
5694 5692 5690 5688 5686 5684 5683 5681 5679 5678 5677 5676 5675 5673 5672 5671 5669 5667 5665 5664 5662 5661 5659 5657 5655 5653 5652 5650 5648 5646 5643 5641 5640 5639 5638 5635 5634 5634 5634 5634 5634 5634 5633 5632 5632 5631 5630 5631 5633 5633 5631 5631 5634 5637 5639 5638 5637 5638 5640 5642 5643 5643 5642 5642 5640 5639 5641 5642 5641 5642 5645 5647 5648 5647 5645 5645 5644 5644 5644 5643 5642 5642 5642 5641 5641 5641 5641 5640
5691 5689 5687 5684 5682 5681 5679 5677 5675 5674 5673 5672 5670 5669 5668 5666 5665 5663 5661 5659 5657 5655 5653 5651 5648 5646 5644 5642 5640 5638 5636 5634 5631 5630 5629 5627 5625 5625 5625 5625 5625 5625 5624 5623 5623 5622 5620 5621 5624 5625 5623 5625 5627 5630 5630 5630 5629 5630 5632 5633 5636 5635 5634 5634 5632 5634 5637 5635 5634 5639 5641 5640 5642 5642 5639 5639 5639 5639 5639 5639 5638 5638 5637 5637 5637 5636 5636 5636
5687 5685 5683 5681 5679 5677 5675 5673 5671 5669 5668 5667 5665 5664 5662 5661 5659 5658 5655 5653 5651 5649 5646 5644 5642 5639 5637 5634 5632 5630 5628 5627 5625 5623 5621 5619 5618 5617 5617 5617 5616 5615 5615 5615 5616 5615 5611 5612 5617 5617 5616 5618 5620 5621 5622 5622 5622 5622 5623 5625 5627 5627 5627 5626 5626 5628 5630 5627 5629 5634 5634 5634 5637 5636 5633 5635 5634 5634 5635 5635 5634 5634 5634 5633 5633 5632 5632 5631
5683 5681 5679 5677 5675 5673 5671 5669 5667 5665 5663 5662 5660 5658 5657 5655 5653 5651 5649 5647 5645 5643 5640 5638 5635 5633 5630 5627 5625 5623 5620 5619 5617 5617 5615 5613 5612 5610 5610 5610 5610 5609 5607 5607 5608 5606 5603 5604 5608 5608 5606 5608 5610 5612 5613 5614 5613 5614 5615 5617 5618 5619 5620 5621 5622 5623 5622 5621 5625 5627 5626 5629 5633 5631 5629 5630 5629 5629 5631 5631 5631 5631 5630 5630 5629 5628 5628 5627
5679 5676 5674 5673 5671 5669 5667 5665 5663 5661 5659 5657 5655 5653 5651 5649 5647 5645 5643 5641 5639 5636 5634 5631 5629 5626 5623 5621 5618 5616 5614 5612 5610 5610 5608 5606 5607 5605 5602 5603 5604 5603 5601 5600 5600 5598 5596 5597 5599 5598 5596 5598 5602 5604 5604 5605 5605 5605 5606 5608 5610 5612 5613 5614 5616 5616 5616 5617 5620 5620 5620 5625 5629 5626 5625 5624 5623 5625 5626 5626 5627 5626 5626 5626 5625 5624 5624 5623
5675 5672 5670 5668 5666 5664 5662 5660 5658 5656 5654 5653 5650 5648 5646 5643 5642 5640 5637 5634 5632 5629 5627 5625 5622 5620 5617 5614 5612 5610 5608 5606 5604 5603 5602 5600 5600 5600 5597 5597 5598 5596 5595 5595 5593 5592 5590 5589 5591 5591 5587 5589 5596 5596 5595 5596 5595 5594 5598 5603 5605 5606 5606 5607 5608 5609 5610 5613 5615 5614 5616 5620 5623 5621 5619 5618 5618 5620 5621 5622 5622 5621 5621 5621 5620 5620 5620 5619
5670 5668 5666 5664 5662 5659 5657 5655 5653 5651 5649 5647 5645 5643 5640 5638 5636 5634 5632 5629 5626 5623 5621 5618 5616 5614 5611 5609 5607 5604 5602 5601 5599 5598 5596 5594 5594 5593 5592 5591 5591 5589 5589 5589 5587 5586 5585 5583 5584 5583 5579 5582 5588 5588 5587 5588 5585 5586 5594 5598 5599 5599 5599 5600 5602 5603 5606 5607 5608 5608 5611 5615 5616 5614 5613 5614 5614 5615 5616 5616 5617 5616 5616 5616 5616 5616 5615 5614